Regional Weather Roundup
Issued by NWS

Home | Current Version | Previous Version | Graphics & Text | Print | Product List | Glossary On
Versions: 1 2 3 4 5 6 7 8 9 10 11 12 13 14 15 16 17 18 19 20 21 22 23 24 25 26 27 28 29 30 31 32 33 34 35 36 37 38 39 40 41 42 43 44 45 46 47 48 49 50
000
ASUS43 KLOT 261221
RWRIL

ILLINOIS REGIONAL WEATHER ROUNDUP
NATIONAL WEATHER SERVICE CHICAGO/ROMEOVILLE IL
700 AM CDT SUN APR 26 2015

NOTE: "FAIR" INDICATES FEW OR NO CLOUDS BELOW 12,000 FEET WITH NO
SIGNIFICANT WEATHER AND/OR OBSTRUCTIONS TO VISIBILITY.

* THESE STATIONS ARE NOT UNDER NWS QUALITY CONTROL. THEY ALSO MAY NOT
  REPORT WEATHER SUCH AS PRECIPITATION OR FOG.

ILZ001-002-007-009-015-016-024-261300-
NORTHWEST ILLINOIS

CITY           SKY/WX    TMP DP  RH WIND       PRES   REMARKS
MOLINE         CLEAR     39  28  64 CALM      29.97R
6HR MIN TEMP:  35; 6HR MAX TEMP:  44;

STERLING*      CLEAR     37  27  65 NE8       29.99R WCI  31
SAVANNA*       CLEAR     37  26  64 N6        30.00R WCI  32
$$

ILZ003-004-008-010-011-017-018-261300-
NORTH CENTRAL ILLINOIS

CITY           SKY/WX    TMP DP  RH WIND       PRES   REMARKS
ROCKFORD       MOSUNNY   35  24  64 NE9       30.01R WCI  28
6HR MIN TEMP:  32; 6HR MAX TEMP:  40;

FREEPORT*      CLEAR     33  27  79 N3        30.02R
ROCHELLE*      SUNNY     34  28  77 NE10      29.99R WCI  26
DE KALB*       SUNNY     33  28  83 NE9       29.98R WCI  25
PERU*          CLEAR     38  31  76 NE9       29.97R WCI  31
$$

ILZ005-006-012>014-019>023-261300-
NORTHEAST ILLINOIS

CITY           SKY/WX    TMP DP  RH WIND       PRES   REMARKS
CHICAGO-OHARE  MOSUNNY   38  30  73 N8        29.96R WCI  32
6HR MIN TEMP:  35; 6HR MAX TEMP:  39;

CHICAGO-MIDWAY SUNNY     43  31  62 NE10      29.96R
6HR MIN TEMP:  39; 6HR MAX TEMP:  43;

AURORA         SUNNY     37  28  70 N10       29.97R WCI  30
6HR MIN TEMP:  34; 6HR MAX TEMP:  39;

LANSING*       SUNNY     41  31  67 NE10      29.96R
JOLIET*        SUNNY     39  33  76 N8        29.96R WCI  34
WAUKEGAN       SUNNY     37  32  82 N5        29.98R WCI  33
6HR MIN TEMP:  32; 6HR MAX TEMP:  37;

DUPAGE AIRPORT SUNNY     35  29  78 N9        29.96R WCI  28
6HR MIN TEMP:  30; 6HR MAX TEMP:  37;

KANKAKEE*      SUNNY     39  34  82 N7        29.94R WCI  34
WHEELING       SUNNY     39  30  70 N5        29.99R
6HR MIN TEMP:  35; 6HR MAX TEMP:  39;

MORRIS*        SUNNY     37  32  83 N5        29.92R WCI  33
ROMEOVILLE*    SUNNY     38  31  77 NE10      29.96R WCI  31
NORTHERLY ISL    N/A     41  32  70 N16         N/A
$$

LMZ740>746-261300-
SOUTHERN LAKE MICHIGAN

STATION/POSITION SKY/WX   TEMP    WIND        PRES    VSBY  WAVE
                          AIR SEA DIR/SP/G                  HT/PER
                          (F)     (DEG/KT/KT) (MB)    (MI)  (FT/S)
HARRISON CRIB              40      20/ 16/ 18   N/A
BURNHAM HARBOR             41      20/ 15/ 17   N/A
CALUMET HARBOR             41      10/ 12/ 15   N/A
BURNS HARBOR               42      50/ 14/ 17 1013.5R
MICHIGAN CITY              40      30/ 16/ 17   N/A
MICHIGAN CITY 6N           42 45   70/ 14/ 17   N/A           4/ 6
$$

ILZ025>027-034>036-040-047-049-050-058-095>099-261300-
WEST-CENTRAL ILLINOIS

CITY           SKY/WX    TMP DP  RH WIND       PRES   REMARKS
QUINCY         PTCLDY    39  34  82 NE6       29.94R WCI  35
GALESBURG*     CLEAR     35  32  88 N8        29.96R WCI  28
MACOMB*        CLEAR     39  32  76 N6        29.99R
JACKSONVILLE*  MOCLDY    44  37  77 NE5       29.93R
PITTSFIELD*    CLEAR     44  38  78 N5        29.94R
$$

ILZ028>032-037-038-041>044-048-051>054-059>061-261300-
CENTRAL ILLINOIS

CITY           SKY/WX    TMP DP  RH WIND       PRES   REMARKS
PONTIAC        SUNNY     38  34  88 N8        29.95R WCI  32
BLOOMINGTON    CLEAR     37  33  85 N8        29.93R WCI  31
DECATUR        PTCLDY    41  36  82 N12       29.91R
PEORIA         CLEAR     40  29  64 NE6       29.95R
6HR MIN TEMP:  39; 6HR MAX TEMP:  47;

LACON*         CLEAR     35  30  82 CALM      29.95R
LINCOLN*       PTCLDY    41  35  79 N7        29.94R
SPRINGFIELD    CLEAR     41  36  82 N7        29.93R
6HR MIN TEMP:  40; 6HR MAX TEMP:  48;

TAYLORVILLE    CLEAR     39  36  87 N7        29.91R WCI  34
$$

ILZ033-039-045-046-055>057-062-063-261300-
EAST-CENTRAL ILLINOIS

CITY           SKY/WX    TMP DP  RH WIND       PRES   REMARKS
CHAMPAIGN      SUNNY     40  35  83 N13       29.89R
DANVILLE*      SUNNY     37  36  94 N7        29.88R FOG     WCI  32
RANTOUL*       SUNNY     40  36  86 N10       29.91R
MATTOON        FAIR      42  35  76 NE9       29.88R
PARIS*         SUNNY     41  36  80 N5        29.89R
$$

ILZ079-100>102-261300-
SOUTHWEST ILLINOIS

CITY           SKY/WX    TMP DP  RH WIND       PRES   REMARKS
ALTON          CLOUDY    46  41  81 N14       29.90R
BELLEVILLE     CLOUDY    47  46  95 N6        29.86R
CAHOKIA*       CLOUDY    48  42  80 NE13      29.88R
SPARTA*        CLOUDY    46  44  91 NE12      29.86S
$$

ILZ064>066-069>071-074>076-080>082-084>086-088>090-092>094-261300-
SOUTH-CENTRAL ILLINOIS

CITY           SKY/WX    TMP DP  RH WIND       PRES   REMARKS
CARBONDALE     CLOUDY    48  44  86 NE10      29.83R
6HR MIN TEMP:  48; 6HR MAX TEMP:  52;

CAIRO*         CLOUDY    51  48  89 N8        29.80R
EFFINGHAM*     MOCLDY    45  32  60 N5        29.90R
MARION         CLOUDY    48  45  87 N14       29.83R
MT. VERNON     CLOUDY    46  37  71 N8        29.86R
CENTRALIA*     CLOUDY    46  40  78 N8        29.87R
SALEM*         CLOUDY    48  38  70 NE9       29.87R
METROPOLIS*    CLOUDY    50  50 100 N10       29.79R
$$

ILZ067-068-072-073-078-083-087-091-261300-
SOUTHEAST ILLINOIS

CITY           SKY/WX    TMP DP  RH WIND       PRES   REMARKS
LAWRENCEVILLE  CLOUDY    46  35  65 NE14      29.86R
FLORA*         CLOUDY    45  35  68 NE10      29.88R
FAIRFIELD*     CLOUDY    47  41  81 N10G16    29.84R
HARRISBURG*    CLOUDY    48  45  88 N9        29.84R
ROBINSON*      CLOUDY    44  35  71 N7        29.89R
CARMI*         CLOUDY    47  40  74 N12       29.84R
$$

ABBREVIATIONS USED IN REMARKS
   TC - TEMPERATURE IN CELSIUS
  WCI - WIND CHILL INDEX
   HX - HEAT INDEX
  VSB - VISIBILITY
$$



USA.gov is the U.S. government's official web portal to all federal, state and local government web resources and services.